Regional Weather Roundup
Issued by NWS Green Bay, WI

Home | Current Version | Previous Version | Text Only | Print | Product List | Glossary On
Versions: 1 2 3 4 5 6 7 8 9 10 11 12 13 14 15 16 17 18 19 20 21 22 23 24 25 26 27 28 29 30 31 32 33 34 35 36 37 38 39 40 41 42 43 44 45 46 47 48 49 50
000
ASUS43 KGRB 171700
RWRGRB

NORTH-CENTRAL AND NORTHEAST WISCONSIN REGIONAL WEATHER ROUNDUP
NATIONAL WEATHER SERVICE GREEN BAY WI
1100 AM CST TUE JAN 17 2017

WIZ005-009-010>012-018-019-171800-
NORTH CENTRAL WISCONSIN

CITY           SKY/WX    TMP DP  RH WIND       PRES   REMARKS
IRONWOOD       CLOUDY    31  24  75 S3        29.92F
MANITOWISH WTR NOT AVBL
ARBOR VITAE    NOT AVBL
EAGLE RIVER    NOT AVBL
LAND O LAKES   NOT AVBL
RHINELANDER    CLOUDY    35  29  78 VRB5      29.88F
PHILLIPS       CLOUDY    34  32  92 N3        29.88S
ANTIGO         NOT AVBL
TOMAHAWK       NOT AVBL
MERRILL        CLOUDY    34  33  97 NE3         N/A
$$

WIZ013-073-171800-
NORTHEAST WISCONSIN

CITY           SKY/WX    TMP DP  RH WIND       PRES   REMARKS
IRON MOUNTAIN  CLOUDY    34  29  82 N5        29.86F
MARINETTE      NOT AVBL
$$

WIZ017-030-035>037-045-171800-
CENTRAL WISCONSIN

CITY           SKY/WX    TMP DP  RH WIND       PRES   REMARKS
MEDFORD        NOT AVBL
WAUSAU         CLOUDY    34  32  92 N5        29.85F
MOSINEE        NOT AVBL
MARSHFIELD     CLOUDY    34  32  92 N6        29.86S FOG
WISC RAPIDS    CLOUDY    34  34 100 N5        29.88F FOG
STEVENS POINT  NOT AVBL
WAUPACA        NOT AVBL
SHAWANO        NOT AVBL
CLINTONVILLE   CLOUDY    32  32 100 N5        29.86F FOG
WAUTOMA        CLOUDY    34  33  96 N6        29.87  FOG
$$

WIZ038-039-048-051-171800-
FOX VALLEY

CITY           SKY/WX    TMP DP  RH WIND       PRES   REMARKS
NWS GREEN BAY  CLOUDY    35  35 100 N8        29.85S FOG
APPLETON       FOG       34  34 100 N8        29.83S VSB 1
OSHKOSH        FOG       34  33  96 NW6       29.85S VSB 3/4
FOND DU LAC    FOG       34  32  92 N5        29.85R VSB 1/2
$$

WIZ022-050-052-171800-
EAST CENTRAL WISCONSIN

CITY           SKY/WX    TMP DP  RH WIND       PRES   REMARKS
EPHRAIM        NOT AVBL
WASHINGTON ISL NOT AVBL
STURGEON BAY   CLOUDY    36  35  96 NE7       29.84S FOG
MANITOWOC      NOT AVBL
SHEBOYGAN      FOG       35  34  96 NW8       29.82S VSB 1/2
$$

LMZ563-521-522-541>543-171800-
LAKESHORE

STATION/POSITION TIME  TEMP    WIND        PRES    VSBY  WAVE
                       AIR SEA DIR/SP/G                  HT/PER
                 (UTC) (F)     (DEG/KT/KT) (MB)    (MI)  (FT/S)
SHEBOYGAN LKSHOR 1600   36     340/ 11/ 13 1010.2R
KEWAUNEE LKSHORE 1630   36      10/  5/ 11 1009.8R
NORTHPORT PIER   1640   34      60/ 13/ 18 1011.2S
MENOMINEE LKSHOR 1630           10/ 18/ 19 1010.5R
$$




USA.gov is the U.S. government's official web portal to all federal, state and local government web resources and services.